Regional Weather Roundup
Issued by NWS

Home | Current Version | Previous Version | Graphics & Text | Print | Product List | Glossary On
Versions: 1 2 3 4 5 6 7 8 9 10 11 12 13 14 15 16 17 18 19 20 21 22 23 24 25 26 27 28 29 30 31 32 33 34 35 36 37 38 39 40 41 42 43 44 45 46 47 48 49 50
000
ASUS43 KMKX 040700
RWRWI

WISCONSIN REGIONAL WEATHER ROUNDUP
NATIONAL WEATHER SERVICE MILWAUKEE/SULLIVAN WI
200 AM CDT FRI SEP 04 2015

NOTE: "FAIR" INDICATES FEW OR NO CLOUDS BELOW 12,000 FEET WITH NO
SIGNIFICANT WEATHER AND/OR OBSTRUCTIONS TO VISIBILITY.

WIZ001-002-006>008-014>016-023>028-040800-
NORTHWEST WISCONSIN

CITY           SKY/WX    TMP DP  RH WIND       PRES   REMARKS
SUPERIOR ARPT  CLEAR     56  55  99 CALM      29.99S
ASHLAND        FOG       51  51 100 W3        30.02R VSB 3/4
HAYWARD        PTCLDY    60  59  96 CALM      30.00S
SIREN          CLOUDY    69  65  86 SE7       29.96S
CUMBERLAND     MOCLDY    64  63  94 SE5       29.98S
RICE LAKE      CLOUDY    67  64  90 CALM      30.00S
CHETEK         CLOUDY    67  65  95 MISG      29.99S
LADYSMITH      CLEAR     65  64  96 E6        30.03S
EAU CLAIRE     MOCLDY    70  64  81 E7        29.97R
MENOMONIE      MOCLDY    69  67  92 E5        29.97S
NEW RICHMOND   CLEAR     70  64  83 SE7       29.95S
OSCEOLA        CLEAR     71  66  86 E7        29.96S
$$

WIZ003>005-009-010-017-018-040800-
NORTH CENTRAL WISCONSIN

CITY           SKY/WX    TMP DP  RH WIND       PRES   REMARKS
MANITOWISH WTR CLEAR     63  63 100 CALM      30.05S
ARBOR VITAE    CLEAR     63  62  97 CALM      30.05S FOG
WOODRUFF       CLEAR     63  62  97 CALM      30.05S FOG
RHINELANDER    FOG       58  57  97 E6        30.06F VSB 1/2
EAGLE RIVER    FOG       59  59 100 CALM      30.06S VSB 1/4
LAND O LAKES   FOG       56  56 100 CALM      30.07S VSB 3/4
PHILLIPS       CLEAR     62  62  98 E3        30.03S
TOMAHAWK       FOG       57  56  97 CALM      30.05S VSB 1
MEDFORD        CLEAR     61  61 100 E5        30.03S
MERRILL          N/A     57  57 100 CALM      30.05S FOG
$$

WIZ029-030-035-036-043>047-040800-
CENTRAL WISCONSIN

CITY           SKY/WX    TMP DP  RH WIND       PRES   REMARKS
WAUSAU         CLEAR     63  62  97 CALM      30.01S FOG
MOSINEE        CLEAR     61  61 100 E3        30.03S
MARSHFIELD     CLOUDY    67  63  87 E7        30.01R
STEVENS POINT  CLEAR     60  60 100 NE6       30.02S
WAUPACA        CLEAR     63  62  97 N5        30.01R FOG
WAUTOMA        NOT AVBL
WISC RAPIDS    CLOUDY    67  63  87 E7        30.01S
CAMP DOUGLAS   NOT AVBL
$$

WIZ011>013-019>022-031-037>040-048>050-040800-
NORTHEAST WISCONSIN

CITY           SKY/WX    TMP DP  RH WIND       PRES   REMARKS
ANTIGO         CLEAR     58  58 100 NE7       30.05S FOG
SHAWANO        NOT AVBL
OCONTO         CLEAR     64  64 100 N3        30.00R
STURGEON BAY   CLOUDY    66  63  88 N6        30.02S
GREEN BAY      CLOUDY    68  64  87 N8        30.00R
MANITOWOC      NOT AVBL
APPLETON       CLEAR     63  63 100 N8        29.99R
CLINTONVILLE   FOG       63  61  94 N5        30.01S VSB 1
OSHKOSH        CLEAR     64  62  93 NW3       29.99R
$$

WIZ032>034-041-042-053>061-040800-
SOUTHWEST WISCONSIN

CITY           SKY/WX    TMP DP  RH WIND       PRES   REMARKS
LA CROSSE      CLEAR     72  66  81 SE8       29.95S
SPARTA         CLOUDY    68  64  88 CALM      29.99R
VIROQUA          N/A     68  68 100 E8        29.98S
BOSCOBEL       CLEAR     71  68  90 CALM      29.96S
PRAIRIE DU CHI PTCLDY    74  70  87 E3        29.94R
PLATTEVILLE    CLEAR     70  69  95 E10       29.97R
$$

WIZ056-057-062-063-064-067-068-040800-
SOUTH CENTRAL WISCONSIN

CITY           SKY/WX    TMP DP  RH WIND       PRES   REMARKS
REEDSBURG      CLOUDY    69  67  92 E5        29.98R
BARABOO/DELLS  CLOUDY    69  65  85 E6        29.98S
LONE ROCK      NOT AVBL
MINERAL POINT  CLEAR     72  66  83 E7        29.98R
MADISON        CLOUDY    71  65  81 E5        29.97S
MIDDLETON      CLOUDY    72  68  87 E3        29.99R
WATERTOWN      CLOUDY    70  70 100 NE5       29.98S
MONROE         MOCLDY    70  68  94 E5        29.98S
JANESVILLE     CLEAR     70  68  94 SE3       29.97S
$$

WIZ051-052-058>065-066-070>072-040800-
SOUTHEAST WISCONSIN

CITY           SKY/WX    TMP DP  RH WIND       PRES   REMARKS
MILWAUKEE      MOCLDY    66  63  90 CALM      29.97S
WAUKESHA       CLEAR     64  63  94 CALM      29.99S
MILWAUKEE/TIMM CLOUDY    64  61  88 CALM      29.98S
RACINE         CLOUDY    66  63  90 NW3       29.99R
BURLINGTON     CLOUDY    65  64  94 CALM      29.98R
KENOSHA        PTCLDY    66  64  93 N3        29.97F
FOND DU LAC    FOG       61  61 100 CALM      29.99R VSB 1/4
SHEBOYGAN      CLOUDY    64  63  96 NW6       29.98S
WEST BEND      FOG       61  59  94 CALM      29.99R VSB 1/2
JUNEAU         CLOUDY    66  65  95 CALM      30.00R
$$

LSZ147-162-040800-
LAKE SUPERIOR

STATION/POSITION TIME  TEMP    WIND        PRES    WAVE
                       AIR SEA DIR/SP/G            HT/PER
                 (UTC) (F)     (DEG/KT/KT) (MB)    (FT/S)
W MID LAKE BUOY  0550   59 57   90/  8/  8 1016.1R   1
DEVILS ISLAND    0600   59      70/  4/  4 1016.2R
PORT WING        0600   56     100/  3/  4 1015.9
SAXON HARBOR     0600   56        CALM     1015.6
$$

LMZ867-665-643>646-040800-
LAKE MICHIGAN

STATION/POSITION TIME  TEMP    WIND        PRES    WAVE
                       AIR SEA DIR/SP/G            HT/PER
                 (UTC) (F)     (DEG/KT/KT) (MB)    (FT/S)
CHAMBERS ISLAND  0600   65     360/  8/ 10 1015.9R
S GREEN BAY BUOY 0500   67 66   20/ 10/ 14 1016.4R
N MID LAKE BUOY  0550   68 66   40/ 10/ 12 1014.9R   1/ 4
NORTHPORT PIER   0600   67      20/  5/  8 1015.6R
SISTER BAY       0626   66      40/  4/  7   N/A
ALGOMA LAKESHORE 0614           50/  6/  9   N/A
KEWAUNEE LAKESHO 0600   66      10/  6/  9 1014.0R
SHEBOYGAN LAKESH 0600   65     310/  5/  5 1014.8R
PORT WASHINGTON  0600   65     290/  5/  7 1015.6R
ATWATER BUOY     0600   61     310/  4/  4 1016.2S
MILWAUKEE LAKESH 0610   67     290/  1/  1   N/A
S MID LAKE BUOY  0550   69 71  330/  6/  8 1013.7F   1/ 4
KENOSHA   LAKESH 0600   66      10/  4/  4 1014.6S
$$

TC  - TEMPERATURE IN CELSIUS
VSB - VISIBILITY IN STATUTE MILES
WCI - WIND CHILL INDEX
HX  - HEAT INDEX




USA.gov is the U.S. government's official web portal to all federal, state and local government web resources and services.